Location: Ocean City
(38.3360°N, 75.0850°W)
Time: 12:59:57
(UTC-05:00)

Explorer 7 - Visible Passes

Search period start: 13 November 2019 00:00
Search period end: 23 November 2019 00:00
Orbit: 485 x 680 km, 50.3° (Epoch: 13 November)

Date Brightness Start Highest point End Pass type
(mag) Time Alt. Az. Time Alt. Az. Time Alt. Az.
13 Nov 8.9 05:09:04 14° NNW 05:09:52 15° N 05:12:13 10° NE visible
14 Nov 8.9 05:13:55 14° NNW 05:15:11 15° N 05:17:36 10° NE visible
15 Nov 8.9 05:18:45 13° NNW 05:20:30 17° N 05:23:08 10° NE visible
16 Nov 8.7 05:23:35 14° NNW 05:25:47 20° NNE 05:28:44 10° ENE visible
17 Nov 8.4 05:28:27 14° NNW 05:31:01 25° NNE 05:34:18 10° ENE visible
18 Nov 9.8 03:57:01 11° NE 03:57:01 11° NE 03:57:19 10° NE visible
18 Nov 7.9 05:33:20 15° NNW 05:36:11 34° NNE 05:39:45 10° E visible
19 Nov 9.6 04:01:56 14° NE 04:01:56 14° NE 04:02:52 10° ENE visible
19 Nov 7.3 05:38:16 16° NW 05:41:16 52° NNE 05:45:03 10° ESE visible
20 Nov 9.3 04:06:55 17° NE 04:06:55 17° NE 04:08:26 10° ENE visible
20 Nov 6.7 05:43:15 17° NW 05:46:16 85° NE 05:50:08 10° SE visible
21 Nov 9.0 04:11:57 22° ENE 04:11:57 22° ENE 04:13:58 10° E visible
21 Nov 6.9 05:48:18 17° WNW 05:51:12 56° SW 05:54:58 10° SE visible
22 Nov 8.6 04:17:03 29° ENE 04:17:03 29° ENE 04:19:22 10° E visible
22 Nov 7.7 05:53:24 16° WNW 05:56:02 31° SW 05:59:28 10° SSE visible
